Location: Cactus School
(34.5700°N, 118.0931°W)
Time: 10:07:56
(UTC-07:00)

A-11 Canister half - Pass Details

Date: 01 May 2024
Orbit: 1525 x 1683 km, 47.3° (Epoch: 21 May)

Event Time Altitude Azimuth Distance (km) Brightness Sun altitude
Exits shadow 01:35:57 29° 104° (ESE) 2,630 10.1 -38.9°
Drops below altitude 10° 01:42:00 10° 70° (ENE) 3,885 11.4 -38.6°
Sets 01:45:35 0° 61° (ENE) 4,895 12.2 -38.4°
